AirNav   Everest Fuels
 
 1105 users online  

10ND Smith Strip Airport
Halliday, North Dakota, USA

GOING TO HALLIDAY?


FAA INFORMATION EFFECTIVE 11 AUGUST 2022

Location

FAA Identifier: 10ND
Lat/Long: 47-11-15.0360N 102-21-41.6450W
47-11.250600N 102-21.694083W
47.1875100,-102.3615681
(estimated)
Elevation: 2200 ft. / 671 m (estimated)
Variation: 11E (1985)
From city: 11 miles S of HALLIDAY, ND
Time zone: UTC -6 (UTC -7 during Standard Time)
Zip code: 58652

Airport Operations

Airport use: Private use. Permission required prior to landing
Activation date: 11/1980
Control tower: no
ARTCC: MINNEAPOLIS CENTER
FSS: GRAND FORKS FLIGHT SERVICE STATION
Attendance: UNATNDD
Wind indicator: no
Segmented circle: no

Nearby radio navigation aids

VOR radial/distance  VOR name  Freq  Var
DIKr027/25.9DICKINSON VORTAC112.9014E

Airport Services

Runway Information

Runway 18/36

Dimensions: 1800 x 50 ft. / 549 x 15 m
Surface: turf
RUNWAY 18  RUNWAY 36
Traffic pattern: leftleft
Obstructions: 30 ft. pline, 75 ft. from runwaynone

Runway 9/27

Dimensions: 1300 x 50 ft. / 396 x 15 m
Surface: turf
RUNWAY 9  RUNWAY 27
Traffic pattern: leftleft

Airport Ownership and Management from official FAA records

Ownership: Privately-owned
Owner: WARREN SMITH
8867 16TH STREET SW
HALLIDAY, ND 58636
Phone 701-938-4207
Manager: WARREN SMITH
8867 16TH STREET SW
HALLIDAY, ND 58636
Phone 701-938-4207

Airport Operational Statistics

Aircraft based on the field: 1
Single engine airplanes: 1
    

Additional Remarks

FOR CD CTC MINNEAPOLIS ARTCC AT 651-463-5588.

Instrument Procedures

There are no published instrument procedures at 10ND.

Some nearby airports with instrument procedures:

9Y1 - Dunn County Airport - Weydahl Field (21 nm NW)
KDIK - Dickinson/Theodore Roosevelt Regional Airport (29 nm SW)
D57 - Glen Ullin Regional Airport (30 nm SE)
KHZE - Mercer County Regional Airport (32 nm E)
D05 - Garrison Municipal Airport (47 nm NE)
 
Loc | Ops | Rwys | IFR | FBO | Links
Com | Nav | Svcs | Stats | Notes

Bismarck Aero Center
AirBoss

 
Area around 10ND (Smith Strip Airport)
 
Road maps at: MapQuest Bing Google
 
Aerial photo
No photo
 
Sectional chart

 
Airport distance calculator
Flying to Smith Strip Airport? Find the distance to fly.

From to 10ND

Sunrise and sunset
Times for 16-Aug-2022
 Local
(UTC-6)
 Zulu
(UTC)
Morning civil twilight05:1511:15
Sunrise05:4911:49
Sunset19:5901:59
Evening civil twilight20:3202:32

Current date and time
Zulu (UTC)  17-Aug-2022 02:26:01
Local (UTC-6)  16-Aug-2022 20:26:01
 
METAR
KDIK 
29nm SW 
170156Z AUTO 06004KT 10SM CLR 26/10 A3005 RMK AO2 SLP159 T02560100
KD57 
30nm SE 
170155Z AUTO 02006KT 10SM CLR 23/12 A3003 RMK AO2
KHZE 
32nm E 
170155Z AUTO 00000KT 10SM CLR 24/15 A3005 RMK AO2
KN60 
47nm NE 
170152Z AUTO 05003KT 24/16 A3004 RMK AO1 SLP164 T02440161
TAF
KDIK 
29nm SW 
161733Z 1618/1718 VRB05KT P6SM FEW100 FEW250
NOTAMs
Click for the latest NOTAMs
NOTAMs are issued by the DoD/FAA and will open in a separate window not controlled by AirNav.

 

 
 

Would you like to see your business listed on this page?

 If your business provides an interesting product or service to pilots, flight crews, aircraft, or users of the Smith Strip Airport, you should consider listing it here.  To start the listing process, click on the button below
 
Add a business
 

Other Pages about Smith Strip Airport

Update a link
 
Copyright © AirNav, LLC. All rights reserved. Privacy Policy  Contact